Location: ??
(35.5052°N, 139.7262°E)
Time: 01:35:41
(UTC+00:00)

NOSS 3-4 (A) - Pass Details

Date: 31 October 2021
Orbit: 861 x 1351 km, 63.4° (Epoch: 28 November)

Event Time Altitude Azimuth Distance (km) Brightness Sun altitude
Exits shadow 18:20:26 - 351° (N) 3,152 6.1 -33.4°
Reaches altitude 10° 18:21:22 10° 357° (N) 2,943 6.0 -33.2°
Maximum altitude 18:26:16 19° 42° (NE) 2,432 6.0 -32.3°
Drops below altitude 10° 18:31:29 10° 85° (E) 3,185 7.1 -31.2°
Sets 18:35:23 0° 102° (ESE) 4,229 7.9 -30.4°
